EW7186 Weather Reports


Display with metric or nautical units.
time (UTC)temp
F
wind
direction
speed
MPH
gust
MPH
rain 1hr
in
rain 24hr
in
rain mn
in
humidity
%
barometer
mb
20260903071607 79 0 0.0 0.0 0.00 0.00 0.00 83 1016.4
20260903070104 79 0 0.0 0.0 0.00 0.00 0.00 82 1016.3
20260903064603 80 0 0.0 0.0 0.00 0.00 0.00 82 1016.4
20260903063103 80 0 0.0 1.0 0.00 0.00 0.00 82 1016.2
20260903061602 81 0 0.0 3.0 0.00 0.00 0.00 81 1016.2
20260903060100 81 227 1.0 4.0 0.00 0.00 0.00 81 1016.2
20260903054557 81 221 1.0 3.0 0.00 0.00 0.00 80 1016.4
20260903053107 82 260 1.0 3.0 0.00 0.00 0.00 80 1016.5
20260903051614 82 230 1.0 3.0 0.00 0.00 0.00 79 1016.8
20260903050111 82 252 0.0 3.0 0.00 0.00 0.00 78 1016.9
20260903044606 82 230 0.0 1.0 0.00 0.00 0.00 78 1017.0
20260903043104 83 0 0.0 1.0 0.00 0.00 0.00 79 1016.8
20260903041632 83 0 0.0 0.0 0.00 0.00 0.00 78 1016.8
20260903040114 84 0 0.0 0.0 0.00 0.00 0.00 78 1016.9
20260903034601 84 0 0.0 0.0 0.00 0.00 0.00 75 1017.0
20260903033100 85 0 0.0 0.0 0.00 0.00 0.00 74 1017.2
20260903031603 85 0 0.0 0.0 0.00 0.00 0.00 74 1017.2
20260903030103 86 0 0.0 0.0 0.00 0.00 0.00 73 1017.3
20260903024603 86 0 0.0 0.0 0.00 0.00 0.00 72 1017.3
20260903023057 85 0 0.0 0.0 0.00 0.00 0.00 75 1017.2
20260903021604 85 0 0.0 0.0 0.00 0.00 0.00 79 1017.3
20260903020105 85 0 0.0 0.0 0.00 0.00 0.00 81 1017.4
20260903014612 86 0 0.0 0.0 0.00 0.00 0.00 76 1017.1
20260903013106 86 0 0.0 0.0 0.00 0.00 0.00 75 1017.0
20260903011602 87 0 0.0 0.0 0.00 0.00 0.00 73 1016.7
20260903010104 87 0 0.0 0.0 0.00 0.00 0.00 73 1016.5
20260903004608 88 0 0.0 0.0 0.00 0.00 0.00 70 1016.3
20260903003103 88 0 0.0 0.0 0.00 0.00 0.00 68 1016.1
20260903001608 89 0 0.0 0.0 0.00 0.00 0.00 67 1016.2
20260902234602 91 0 0.0 0.0 0.00 0.00 0.00 62 1016.1
20260902233104 91 0 0.0 0.0 0.00 0.00 0.00 61 1016.2
20260902231602 92 0 0.0 0.0 0.00 0.00 0.00 62 1016.0
20260902230111 93 0 0.0 0.0 0.00 0.00 0.00 57 1016.0
20260902224604 93 0 0.0 0.0 0.00 0.00 0.00 55 1015.9
20260902223120 93 0 0.0 0.0 0.00 0.00 0.00 56 1016.1
20260902221559 93 0 0.0 0.0 0.00 0.00 0.00 59 1016.1
20260902220105 93 0 0.0 0.0 0.00 0.00 0.00 57 1016.2
20260902214609 94 0 0.0 3.0 0.00 0.00 0.00 57 1016.2
20260902213110 94 63 2.0 3.0 0.00 0.00 0.00 54 1016.2
20260902211608 94 49 2.0 3.0 0.00 0.00 0.00 53 1016.3
20260902210106 94 62 3.0 3.0 0.00 0.00 0.00 55 1016.3
20260902204606 94 52 1.0 3.0 0.00 0.00 0.00 51 1016.3
20260902203101 94 54 1.0 2.0 0.00 0.00 0.00 53 1016.4
20260902201558 94 0 0.0 2.0 0.00 0.00 0.00 51 1016.6
20260902200108 94 46 1.0 3.0 0.00 0.00 0.00 49 1016.6
20260902194606 94 62 1.0 3.0 0.00 0.00 0.00 48 1016.9
20260902193123 93 0 0.0 0.0 0.00 0.00 0.00 51 1017.0
20260902191605 93 0 0.0 2.0 0.00 0.00 0.00 51 1017.1
20260902190111 93 59 2.0 3.0 0.00 0.00 0.00 50 1017.4
20260902184621 93 0 0.0 5.0 0.00 0.00 0.00 49 1017.4
20260902183118 92 60 3.0 3.0 0.00 0.00 0.00 54 1017.6
20260902181557 92 0 0.0 2.0 0.00 0.00 0.00 56 1017.8
20260902180106 91 59 2.0 3.0 0.00 0.00 0.00 54 1017.7
20260902174608 91 62 3.0 3.0 0.00 0.00 0.00 56 1017.8
20260902173107 91 63 2.0 3.0 0.00 0.00 0.00 58 1018.0
20260902171609 91 62 2.0 3.0 0.00 0.00 0.00 59 1018.2
20260902170108 90 63 3.0 4.0 0.00 0.00 0.00 58 1018.4
20260902164559 90 70 2.0 3.0 0.00 0.00 0.00 59 1018.5
20260902163100 89 72 3.0 4.0 0.00 0.00 0.00 62 1018.5
20260902161612 89 78 0.0 0.0 0.00 0.00 0.00 66 1018.5
20260902160059 88 0 0.0 3.0 0.00 0.00 0.00 66 1018.6
20260902154606 88 0 0.0 0.0 0.00 0.00 0.00 67 1018.7
20260902153107 88 0 1.0 4.0 0.00 0.00 0.00 68 1018.7
20260902151606 87 340 1.0 3.0 0.00 0.00 0.00 70 1018.8
20260902150103 86 346 2.0 4.0 0.00 0.00 0.00 70 1018.8
20260902144607 86 0 0.0 4.0 0.00 0.00 0.00 71 1018.7
20260902143107 85 330 3.0 4.0 0.00 0.00 0.00 72 1018.6
20260902141607 85 0 1.0 4.0 0.00 0.00 0.00 75 1018.6
20260902140106 83 0 0.0 3.0 0.00 0.00 0.00 78 1018.7
20260902134607 83 0 0.0 0.0 0.00 0.00 0.00 80 1018.8
20260902133108 82 0 0.0 1.0 0.00 0.00 0.00 82 1018.8
20260902131601 80 0 0.0 0.0 0.00 0.00 0.00 84 1018.8
20260902130100 79 0 0.0 1.0 0.00 0.00 0.00 86 1018.9
20260902124601 78 0 0.0 0.0 0.00 0.00 0.00 88 1018.9
20260902123106 77 0 0.0 0.0 0.00 0.00 0.00 89 1018.9
20260902121604 77 0 0.0 1.0 0.00 0.00 0.00 90 1019.0
20260902120101 76 224 0.0 1.0 0.00 0.00 0.00 90 1019.0
20260902114604 76 0 0.0 0.0 0.00 0.00 0.00 90 1018.9
20260902113111 76 0 0.0 0.0 0.00 0.00 0.00 91 1018.6
20260902111558 75 0 0.0 0.0 0.00 0.00 0.00 91 1018.4
20260902110056 75 0 0.0 0.0 0.00 0.00 0.00 91 1018.5
20260902104558 75 0 0.0 0.0 0.00 0.00 0.00 91 1018.4
20260902103106 76 0 0.0 0.0 0.00 0.00 0.00 90 1018.3
20260902101557 76 0 0.0 0.0 0.00 0.00 0.00 90 1018.1
20260902100112 76 0 0.0 0.0 0.00 0.00 0.00 90 1018.1
20260902094604 76 0 0.0 0.0 0.00 0.00 0.00 90 1018.0
20260902093111 76 0 0.0 0.0 0.00 0.00 0.00 90 1018.0
20260902091610 76 0 0.0 0.0 0.00 0.00 0.00 89 1017.8
20260902090114 76 0 0.0 0.0 0.00 0.00 0.00 89 1017.7
20260902084602 77 0 0.0 1.0 0.00 0.00 0.00 89 1017.8
20260902083103 77 0 0.0 0.0 0.00 0.00 0.00 88 1017.6
20260902081604 77 0 0.0 0.0 0.00 0.00 0.00 88 1017.5
20260902080114 77 0 0.0 0.0 0.00 0.00 0.00 87 1017.6
20260902074621 78 0 0.0 0.0 0.00 0.00 0.00 87 1017.4
20260902073109 78 0 0.0 1.0 0.00 0.00 0.00 86 1017.4